Tracking 27112 objects as of 26-Mar-2023
HD Live streaming from Space Station
objects crossing your sky now

ONEWEB-0169

Track ONEWEB-0169 now!
10-day predictions
ONEWEB-0169 is classified as:


NORAD ID: 48077
Int'l Code: 2021-025AM
Perigee: 1,215.7 km
Apogee: 1,218.1 km
Inclination: 87.9 °
Period: 109.6 minutes
Semi major axis: 7587 km
RCS: Unknown
Launch date: March 25, 2021
Source: United States (US)
Launch site: VOSTOCHNY COSMODROME (VOSTO)
Your satellite tracking list
Your tracking list is empty




NASA's NSSDC Master Catalog

Two Line Element Set (TLE):
1 48077U 21025AM  23084.80023898 -.00000192  00000-0 -55993-3 0  9999
2 48077  87.9108 194.6293 0001544  95.9507 264.1799 13.13471270 97489
Source of the keplerian elements: AFSPC